Location: East Guldeford
(50.9500°N, 0.7500°E)
Time: 09:48:14
(UTC+00:00)

Spot 2 Rocket - Pass Details

Date: 12 May 2021
Orbit: 757 x 772 km, 98.5° (Epoch: 16 June)

Event Time Altitude Azimuth Distance (km) Brightness Sun altitude
Exits shadow 21:24:50 14° 178° (S) 2,042 5.2 -13.4°
Maximum altitude 21:29:12 62° 258° (WSW) 853 3.8 -13.8°
Drops below altitude 10° 21:34:13 10° 339° (NNW) 2,300 7.3 -14.3°
Sets 21:36:34 0° 343° (NNW) 3,230 8.3 -14.5°
